User: anonymous   Login
Location: Ku?niki
(51.4449°N, 17.8974°E)
Time: 03:13:48
(UTC+00:00)
Language:

ATLAS CENTAUR R/B - Orbit

View from above orbital plane
View from above orbital plane
View from above satellite
View from above satellite

Ground track
Ground track

The orbit data is extracted from the following two-line orbital elements,

1 38770U 12048N   20327.22375428 0.00000650  00000-0  45155-4 0    05
2 38770  64.6606  23.5623 0135780  83.4198 276.5801 14.98030154    07
Epoch (UTC): 22 November 2020 05:22:12
Eccentricity: 0.0135780
inclination: 64.6606°
perigee height: 478 km
apogee height: 667 km
right ascension of ascending node: 23.5623°
argument of perigee: 83.4198°
revolutions per day: 14.98030154
mean anomaly at epoch: 276.5801°
orbit number at epoch: 0

The dashed part of the orbit path shows where the satellite is in the earth's shadow,  

DLR